Jackson, MI

4:50 AM EDT on October 21, 2019 (GMT -0400)
Jackson County-Reynolds

Weather History for KJXN - August, 2019

Change the Weather History Date:

Tuesday, August 20, 2019

  Actual Average Record
Temperature  
Mean Temperature 77 °F 69 °F  
Max Temperature 86 °F 80 °F 93 °F (1955)
Min Temperature 68 °F 59 °F 45 °F (1949)
Degree Days  
Heating Degree Days 0 1  
Month to date heating degree days 0 16  
Since 1 June heating degree days 58 82  
Since 1 July heating degree days 0 27  
Cooling Degree Days 12 5  
Month to date cooling degree days 132 115  
Year to date cooling degree days 537 480  
Since 1 June cooling degree days 527 443  
Growing Degree Days 27 (Base 50)    
Moisture  
Dew Point 68 °F    
Average Humidity 80    
Maximum Humidity 93    
Minimum Humidity 61    
Precipitation  
Precipitation 0.23 in 0.11 in 2.48 in (1958)
Month to date precipitation 0.45 2.28  
Year to date precipitation 20.64 19.73  
Sea Level Pressure  
Sea Level Pressure 29.99 in    
Wind  
Wind Speed 3 mph ()    
Max Wind Speed 23 mph    
Max Gust Speed 31 mph    
Visibility 9.2 miles    
Events Rain , Thunderstorm    
T = Trace of Precipitation, MM = Missing Value Source: Averaged Metar Reports

Daily Weather History Graph

Daily Weather History Graph

Search for Another Location

Airport or City:

Astronomy

Aug. 20, 2019 Rise Set
Actual Time 6:50 AM EDT 8:31 PM EDT
Civil Twilight 6:20 AM EDT 9:01 PM EDT
Nautical Twilight 5:44 AM EDT 9:37 PM EDT
Astronomical Twilight 5:05 AM EDT 10:15 PM EDT
Moon 11:14 PM EDT (8/20) 11:32 AM EDT (8/20)
Length of Visible Light 14h 40m
Length of Day
13h 41m
Waning Gibbous, 78% of the Moon is Illuminated
Aug 20
Waning Gibbous
Aug 23
Last Quarter
Aug 30
New
Sep 5
First Quarter
Sep 14
Full

Hourly Weather History & Observations

Time (EDT) Temp. Heat Index Dew Point Humidity Pressure Visibility Wind Dir Wind Speed Gust Speed Precip Events Conditions
12:56 AM 71.1 °F - 66.9 °F 87% 30.04 in 10.0 mi Calm Calm - N/A   Clear
1:56 AM 71.1 °F - 66.9 °F 87% 30.05 in 10.0 mi Calm Calm - N/A   Clear
2:56 AM 69.1 °F - 66.0 °F 90% 30.05 in 10.0 mi Calm Calm - N/A   Clear
3:56 AM 69.1 °F - 66.0 °F 90% 30.05 in 10.0 mi Calm Calm - N/A   Partly Cloudy
4:56 AM 71.1 °F - 66.9 °F 87% 30.06 in 10.0 mi SSE 3.5 mph - N/A   Mostly Cloudy
5:56 AM 70.0 °F - 66.0 °F 87% 30.06 in 10.0 mi Calm Calm - N/A   Mostly Cloudy
6:56 AM 70.0 °F - 66.0 °F 87% 30.04 in 10.0 mi Calm Calm - N/A   Clear
7:56 AM 72.0 °F - 66.9 °F 84% 30.01 in 10.0 mi SE 6.9 mph - N/A   Clear
8:56 AM 73.9 °F - 68.0 °F 82% 30.04 in 10.0 mi Calm Calm - N/A   Mostly Cloudy
9:56 AM 73.9 °F - 68.0 °F 82% 30.04 in 10.0 mi South 5.8 mph - N/A   Partly Cloudy
10:56 AM 79.0 °F - 71.1 °F 77% 30.04 in 10.0 mi SSE 8.1 mph - N/A   Clear
11:56 AM 82.9 °F 87.0 °F 70.0 °F 65% 30.03 in 10.0 mi South 11.5 mph - N/A   Clear
12:56 PM 84.9 °F 89.4 °F 70.0 °F 61% 30.02 in 10.0 mi South 10.4 mph - N/A   Mostly Cloudy
1:56 PM 84.9 °F 89.4 °F 70.0 °F 61% 30.00 in 10.0 mi South 8.1 mph - N/A   Scattered Clouds
2:56 PM 86.0 °F 91.5 °F 71.1 °F 61% 29.98 in 10.0 mi South 9.2 mph - N/A   Clear
3:56 PM 84.9 °F 90.1 °F 71.1 °F 63% 29.97 in 10.0 mi South 10.4 mph - N/A   Partly Cloudy
4:56 PM 82.9 °F 87.5 °F 71.1 °F 67% 29.94 in 10.0 mi SSW 5.8 mph - N/A   Clear
5:25 PM 81.0 °F 85.2 °F 72.0 °F 74% 29.97 in 10.0 mi WSW 3.5 mph - N/A Thunderstorm Partly Cloudy
5:56 PM 81.0 °F 85.8 °F 73.0 °F 77% 29.94 in 10.0 mi SSW 4.6 mph - N/A Thunderstorm Scattered Clouds
6:11 PM 73.0 °F - 64.9 °F 76% 29.97 in 1.0 mi West 12.7 mph 31.1 mph 0.11 in Rain , Thunderstorm Light Thunderstorms and Rain
6:19 PM 71.1 °F - 64.9 °F 81% 29.97 in 0.8 mi Calm Calm - 0.22 in Rain , Thunderstorm Light Thunderstorms and Rain
6:22 PM 71.1 °F - 64.9 °F 81% 29.97 in 10.0 mi North - - 0.22 in Rain , Thunderstorm Light Thunderstorms and Rain
6:45 PM 72.0 °F - 68.0 °F 87% 29.94 in 10.0 mi Calm Calm - 0.23 in Rain , Thunderstorm Light Rain
6:56 PM 72.0 °F - 69.1 °F 91% 29.93 in 10.0 mi SW 3.5 mph - 0.23 in   Partly Cloudy
7:56 PM 71.1 °F - 68.0 °F 90% 29.92 in 8.0 mi NNE 5.8 mph - N/A   Clear
8:56 PM 71.1 °F - 66.9 °F 87% 29.93 in 10.0 mi Calm Calm - N/A   Clear
9:56 PM 71.1 °F - 68.0 °F 90% 29.94 in 7.0 mi Calm Calm - N/A   Scattered Clouds
10:56 PM 71.1 °F - 66.9 °F 87% 29.93 in 10.0 mi SE 5.8 mph - N/A   Overcast
11:56 PM 70.0 °F - 66.0 °F 87% 29.94 in 10.0 mi South 4.6 mph - N/A   Overcast